Weather History for London-Corbin, KY

Change the Weather History Date:

Wednesday, May 13, 2009

  Actual Average Record
Temperature  
Mean Temperature 63 °F 64 °F  
Max Temperature 75 °F 76 °F 89 °F (1956)
Min Temperature 51 °F 52 °F 34 °F (2013)
Degree Days  
Heating Degree Days 2 3  
Month to date heating degree days 42 55  
Since 1 July heating degree days 4248 4156  
Cooling Degree Days 0 2  
Month to date cooling degree days 9 21  
Year to date cooling degree days 42 47  
Growing Degree Days 12 (Base 50)    
Moisture  
Dew Point 52 °F    
Average Humidity 66    
Maximum Humidity 83    
Minimum Humidity 49    
Precipitation  
Precipitation T in 0.18 in 1.68 in (1983)
Month to date precipitation 6.19 2.14  
Year to date precipitation 22.50 17.49  
Snow  
Snow 0.00 in - - ()
Month to date snowfall  
Since 1 July snowfall  
Snow Depth -    
Sea Level Pressure  
Sea Level Pressure 30.11 in    
Wind  
Wind Speed 7 mph (South)    
Max Wind Speed 20 mph    
Max Gust Speed 26 mph    
Visibility 10 miles    
Events Rain , Thunderstorm    
T = Trace of Precipitation, MM = Missing Value Source: NWS Daily Summary

Daily Weather History Graph

Daily Weather History Graph

Search for Another Location

Airport:

Trip Planner

Search our weather history database for the weather conditions in past years. The results will help you decide how hot, cold, wet, or windy it might be!

Date:

Astronomy

May. 13, 2009 Rise Set
Actual Time 6:29 AM EDT 8:36 PM EDT
Civil Twilight 6:00 AM EDT 9:05 PM EDT
Nautical Twilight 5:25 AM EDT 9:40 PM EDT
Astronomical Twilight 4:47 AM EDT 10:18 PM EDT
Moon 12:09 AM EDT (5/13) 9:42 AM EDT (5/13)
Length of Visible Light 15h 04m
Length of Day
14h 06m
Waning Gibbous, 82% of the Moon is Illuminated
May 13
Waning Gibbous
May 17
Last Quarter
May 24
New
May 30
First Quarter
Jun 7
Full

Hourly Weather History & Observations

Time (EDT) Temp. Dew Point Humidity Pressure Visibility Wind Dir Wind Speed Gust Speed Precip Events Conditions
12:53 AM 54.0 °F 48.9 °F 83% 30.14 in 10.0 mi Calm Calm - N/A   Clear
1:53 AM 53.1 °F 48.9 °F 86% 30.11 in 10.0 mi Calm Calm - N/A   Clear
2:53 AM 53.1 °F 48.9 °F 86% 30.10 in 10.0 mi South 3.5 mph - N/A   Overcast
3:53 AM 53.1 °F 46.9 °F 80% 30.09 in 10.0 mi South 3.5 mph - N/A   Mostly Cloudy
4:53 AM 52.0 °F 46.9 °F 83% 30.09 in 10.0 mi Calm Calm - N/A   Clear
5:53 AM 54.0 °F 46.0 °F 75% 30.09 in 10.0 mi Calm Calm - N/A   Clear
6:53 AM 53.1 °F 46.9 °F 80% 30.13 in 10.0 mi Calm Calm - N/A   Clear
7:53 AM 55.0 °F 50.0 °F 83% 30.16 in 10.0 mi Calm Calm - N/A   Clear
8:53 AM 59.0 °F 50.0 °F 72% 30.16 in 10.0 mi SSE 4.6 mph - N/A   Clear
9:53 AM 64.0 °F 51.1 °F 63% 30.15 in 10.0 mi SSE 8.1 mph - N/A   Scattered Clouds
10:53 AM 66.0 °F 51.1 °F 59% 30.15 in 10.0 mi Variable 5.8 mph 17.3 mph N/A   Mostly Cloudy
11:28 AM 64.4 °F 50.0 °F 59% 30.18 in 10.0 mi South 13.8 mph 20.7 mph N/A Thunderstorm Overcast
11:53 AM 64.0 °F 51.1 °F 63% 30.18 in 10.0 mi Calm Calm - N/A Thunderstorm Overcast
12:06 PM 64.4 °F 51.8 °F 64% 30.19 in 8.0 mi SSE 3.5 mph - 0.00 in Rain Light Rain
12:53 PM 64.9 °F 55.0 °F 70% 30.14 in 10.0 mi SE 6.9 mph - 0.00 in   Mostly Cloudy
1:53 PM 69.1 °F 54.0 °F 58% 30.13 in 10.0 mi SSE 9.2 mph 16.1 mph N/A   Mostly Cloudy
2:53 PM 71.1 °F 54.0 °F 55% 30.11 in 10.0 mi South 11.5 mph 19.6 mph N/A   Clear
3:53 PM 73.0 °F 54.0 °F 51% 30.08 in 10.0 mi South 11.5 mph 25.3 mph N/A   Clear
4:53 PM 73.9 °F 55.0 °F 52% 30.06 in 10.0 mi South 12.7 mph 21.9 mph N/A   Partly Cloudy
5:53 PM 73.9 °F 55.9 °F 53% 30.06 in 10.0 mi South 15.0 mph 23.0 mph N/A   Scattered Clouds
6:53 PM 73.9 °F 55.9 °F 53% 30.06 in 10.0 mi South 9.2 mph - N/A   Mostly Cloudy
7:53 PM 73.0 °F 55.9 °F 55% 30.08 in 10.0 mi South 9.2 mph - N/A   Overcast
8:53 PM 72.0 °F 55.9 °F 57% 30.08 in 10.0 mi South 8.1 mph - N/A   Overcast
9:53 PM 70.0 °F 57.0 °F 63% 30.09 in 10.0 mi South 5.8 mph - N/A   Overcast
10:53 PM 70.0 °F 55.9 °F 61% 30.08 in 10.0 mi South 10.4 mph 18.4 mph N/A   Mostly Cloudy
11:53 PM 69.1 °F 54.0 °F 58% 30.08 in 10.0 mi South 11.5 mph 23.0 mph N/A   Mostly Cloudy